Time,TemperatureF,DewpointF,PressureIn,WindDirection,WindDirectionDegrees,WindSpeedMPH,WindSpeedGustMPH,Humidity,HourlyPrecipIn,Conditions,Clouds,dailyrainin,SoftwareType,DateUTC
2013-08-03 00:01:00,56.9,54.9,29.88,South,174,0.0,0.0,93,0.00,,-RA,0.00,VWS V14.01,2013-08-03 07:01:00,
2013-08-03 00:06:00,56.9,54.9,29.88,South,174,0.0,0.0,93,0.00,,-RA,0.00,VWS V14.01,2013-08-03 07:06:00,
2013-08-03 00:11:00,56.9,54.9,29.88,South,174,0.0,0.0,93,0.00,,-RA,0.00,VWS V14.01,2013-08-03 07:11:00,
2013-08-03 00:16:00,57.0,55.0,29.87,South,174,0.0,0.0,93,0.00,,-RA,0.00,VWS V14.01,2013-08-03 07:16:00,
2013-08-03 00:21:00,57.0,55.0,29.87,South,174,0.0,0.0,93,0.00,,-RA,0.00,VWS V14.01,2013-08-03 07:21:00,
2013-08-03 00:26:00,57.0,55.0,29.87,South,174,0.0,0.0,93,0.00,,-RA,0.00,VWS V14.01,2013-08-03 07:26:00,
2013-08-03 00:31:00,57.0,55.0,29.87,South,174,0.0,0.0,93,0.00,,-RA,0.00,VWS V14.01,2013-08-03 07:31:00,
2013-08-03 00:37:00,57.0,55.0,29.87,South,174,0.0,0.0,93,0.00,,OVC045,0.00,VWS V14.01,2013-08-03 07:37:00,
2013-08-03 00:42:00,57.0,55.0,29.87,South,174,0.0,0.0,93,0.00,,OVC045,0.00,VWS V14.01,2013-08-03 07:42:00,
2013-08-03 00:47:00,57.0,55.0,29.87,South,174,0.0,0.0,93,0.00,,OVC045,0.00,VWS V14.01,2013-08-03 07:47:00,
2013-08-03 00:52:00,57.0,55.0,29.87,South,174,0.0,0.0,93,0.00,,OVC045,0.00,VWS V14.01,2013-08-03 07:52:00,
2013-08-03 00:57:00,57.0,55.0,29.87,South,174,0.0,0.0,93,0.00,,OVC045,0.00,VWS V14.01,2013-08-03 07:57:00,
2013-08-03 01:02:00,57.0,55.0,29.87,South,174,0.0,0.0,93,0.00,,OVC045,0.00,VWS V14.01,2013-08-03 08:02:00,
2013-08-03 01:07:00,56.9,54.9,29.87,South,174,0.0,0.0,93,0.00,,OVC045,0.00,VWS V14.01,2013-08-03 08:07:00,
2013-08-03 01:12:00,56.9,54.9,29.87,South,174,0.0,0.0,93,0.00,,OVC045,0.00,VWS V14.01,2013-08-03 08:12:00,
2013-08-03 01:17:00,57.0,55.0,29.87,South,174,0.0,0.0,93,0.00,,OVC045,0.00,VWS V14.01,2013-08-03 08:17:00,
2013-08-03 01:22:00,57.0,55.0,29.87,South,174,0.0,0.0,93,0.00,,OVC045,0.00,VWS V14.01,2013-08-03 08:22:00,
2013-08-03 01:27:00,57.0,55.0,29.87,South,174,0.0,0.0,93,0.00,,OVC045,0.00,VWS V14.01,2013-08-03 08:27:00,
2013-08-03 01:32:00,57.0,55.0,29.86,South,174,0.0,0.0,93,0.00,,OVC045,0.00,VWS V14.01,2013-08-03 08:32:00,
2013-08-03 01:37:00,57.0,55.0,29.86,South,174,0.0,0.0,93,0.00,,,0.00,VWS V14.01,2013-08-03 08:37:00,
2013-08-03 01:42:00,57.0,55.0,29.86,South,174,0.0,0.0,93,0.00,,,0.00,VWS V14.01,2013-08-03 08:42:00,
2013-08-03 01:48:00,57.0,55.0,29.86,South,174,0.0,0.0,93,0.00,,,0.00,VWS V14.01,2013-08-03 08:48:00,
2013-08-03 01:53:00,57.0,55.0,29.86,South,174,0.0,0.0,93,0.00,,,0.00,VWS V14.01,2013-08-03 08:53:00,
2013-08-03 01:58:00,57.0,55.0,29.86,South,174,0.0,0.0,93,0.00,,,0.00,VWS V14.01,2013-08-03 08:58:00,
2013-08-03 02:03:00,56.9,54.9,29.86,South,174,0.0,0.0,93,0.00,,,0.00,VWS V14.01,2013-08-03 09:03:00,
2013-08-03 02:08:00,56.9,54.9,29.86,South,174,0.0,0.0,93,0.00,,,0.00,VWS V14.01,2013-08-03 09:08:00,
2013-08-03 02:13:00,56.9,54.9,29.86,South,174,0.0,0.0,93,0.00,,,0.00,VWS V14.01,2013-08-03 09:13:00,
2013-08-03 02:18:00,56.9,54.9,29.86,South,174,0.0,0.0,93,0.00,,,0.00,VWS V14.01,2013-08-03 09:18:00,
2013-08-03 02:23:00,56.7,54.7,29.86,South,174,0.0,0.0,93,0.00,,,0.00,VWS V14.01,2013-08-03 09:23:00,
2013-08-03 02:28:00,56.7,54.7,29.86,South,174,0.0,0.0,93,0.00,,,0.00,VWS V14.01,2013-08-03 09:28:00,
2013-08-03 02:33:00,56.6,54.6,29.86,South,174,0.0,0.0,93,0.00,,,0.00,VWS V14.01,2013-08-03 09:33:00,
2013-08-03 02:38:00,56.6,54.6,29.86,South,174,0.0,0.0,93,0.00,,,0.00,VWS V14.01,2013-08-03 09:38:00,
2013-08-03 02:43:00,56.5,54.5,29.86,South,174,0.0,2.0,93,0.00,,,0.00,VWS V14.01,2013-08-03 09:43:00,
2013-08-03 02:48:00,56.5,54.5,29.86,South,174,0.0,0.0,93,0.00,,,0.00,VWS V14.01,2013-08-03 09:48:00,
2013-08-03 02:54:00,56.5,54.5,29.86,South,174,0.0,0.0,93,0.00,,,0.00,VWS V14.01,2013-08-03 09:54:00,
2013-08-03 02:59:00,56.5,54.5,29.85,South,174,0.0,0.0,93,0.00,,,0.00,VWS V14.01,2013-08-03 09:59:00,
2013-08-03 03:04:00,56.3,54.3,29.85,South,174,0.0,0.0,93,0.00,,,0.00,VWS V14.01,2013-08-03 10:04:00,
2013-08-03 03:09:00,56.3,54.3,29.85,South,174,0.0,0.0,93,0.00,,,0.00,VWS V14.01,2013-08-03 10:09:00,
2013-08-03 03:14:00,56.3,54.3,29.85,South,174,0.0,0.0,93,0.00,,,0.00,VWS V14.01,2013-08-03 10:14:00,
2013-08-03 03:19:00,56.3,54.3,29.85,South,174,0.0,0.0,93,0.00,,,0.00,VWS V14.01,2013-08-03 10:19:00,
2013-08-03 03:24:00,56.3,54.3,29.85,South,174,0.0,0.0,93,0.00,,,0.00,VWS V14.01,2013-08-03 10:24:00,
2013-08-03 03:29:00,56.3,54.3,29.85,South,174,0.0,0.0,93,0.00,,,0.00,VWS V14.01,2013-08-03 10:29:00,
2013-08-03 03:34:00,56.2,54.2,29.85,South,174,0.0,0.0,93,0.00,,,0.00,VWS V14.01,2013-08-03 10:34:00,
2013-08-03 03:39:00,56.2,54.2,29.85,South,174,0.0,0.0,93,0.00,,,0.00,VWS V14.01,2013-08-03 10:39:00,
2013-08-03 03:44:00,56.2,54.2,29.86,South,174,0.0,0.0,93,0.00,,,0.00,VWS V14.01,2013-08-03 10:44:00,
2013-08-03 03:49:00,56.2,54.2,29.86,South,174,0.0,0.0,93,0.00,,,0.00,VWS V14.01,2013-08-03 10:49:00,
2013-08-03 03:55:00,56.0,54.0,29.86,South,174,0.0,0.0,93,0.00,,,0.00,VWS V14.01,2013-08-03 10:55:00,
2013-08-03 04:00:00,56.0,54.0,29.86,South,174,0.0,0.0,93,0.00,,,0.00,VWS V14.01,2013-08-03 11:00:00,
2013-08-03 04:04:00,56.0,54.0,29.86,South,174,0.0,0.0,93,0.01,,,0.01,VWS V14.01,2013-08-03 11:04:00,
2013-08-03 04:10:00,56.0,54.0,29.86,South,174,0.0,0.0,93,0.01,,,0.01,VWS V14.01,2013-08-03 11:10:00,
2013-08-03 04:15:00,55.9,53.9,29.86,South,174,0.0,0.0,93,0.01,,,0.01,VWS V14.01,2013-08-03 11:15:00,
2013-08-03 04:20:00,55.9,53.9,29.86,South,174,0.0,0.0,93,0.01,,,0.01,VWS V14.01,2013-08-03 11:20:00,
2013-08-03 04:25:00,55.9,54.2,29.86,South,174,0.0,0.0,94,0.01,,,0.01,VWS V14.01,2013-08-03 11:25:00,
2013-08-03 04:30:00,56.0,54.3,29.86,South,174,0.0,0.0,94,0.01,,,0.01,VWS V14.01,2013-08-03 11:30:00,
2013-08-03 04:35:00,56.0,54.3,29.86,South,174,0.0,0.0,94,0.01,,-RA,0.01,VWS V14.01,2013-08-03 11:35:00,
2013-08-03 04:40:00,56.2,54.5,29.86,South,174,0.0,0.0,94,0.01,,-RA,0.01,VWS V14.01,2013-08-03 11:40:00,
2013-08-03 04:45:00,56.2,54.5,29.86,South,175,0.0,0.0,94,0.01,,-RA,0.01,VWS V14.01,2013-08-03 11:45:00,
2013-08-03 04:50:00,56.2,54.5,29.86,South,174,0.0,0.0,94,0.01,,-RA,0.01,VWS V14.01,2013-08-03 11:50:00,
2013-08-03 04:55:00,56.2,54.5,29.86,South,174,0.0,0.0,94,0.01,,-RA,0.01,VWS V14.01,2013-08-03 11:55:00,
2013-08-03 05:00:00,56.0,54.3,29.86,South,174,0.0,0.0,94,0.01,,-RA,0.01,VWS V14.01,2013-08-03 12:00:00,
2013-08-03 05:05:00,56.0,54.3,29.86,South,174,0.0,0.0,94,0.01,,-RA,0.01,VWS V14.01,2013-08-03 12:05:00,
2013-08-03 05:10:00,56.0,54.3,29.86,South,174,0.0,0.0,94,0.01,,-RA,0.01,VWS V14.01,2013-08-03 12:10:00,
2013-08-03 05:16:00,56.0,54.3,29.86,South,174,0.0,0.0,94,0.00,,-RA,0.01,VWS V14.01,2013-08-03 12:16:00,
2013-08-03 05:21:00,56.0,54.3,29.86,South,174,0.0,0.0,94,0.00,,-RA,0.01,VWS V14.01,2013-08-03 12:21:00,
2013-08-03 05:26:00,56.0,54.3,29.86,South,174,0.0,0.0,94,0.00,,-RA,0.01,VWS V14.01,2013-08-03 12:26:00,
2013-08-03 05:31:00,56.0,54.3,29.87,South,174,0.0,0.0,94,0.00,,-RA,0.01,VWS V14.01,2013-08-03 12:31:00,
2013-08-03 05:36:00,56.0,54.3,29.87,South,174,0.0,0.0,94,0.00,,-RA,0.01,VWS V14.01,2013-08-03 12:36:00,
2013-08-03 05:41:00,56.0,54.3,29.87,South,174,0.0,0.0,94,0.00,,-RA,0.01,VWS V14.01,2013-08-03 12:41:00,
2013-08-03 05:46:00,56.0,54.3,29.87,South,174,0.0,0.0,94,0.00,,-RA,0.01,VWS V14.01,2013-08-03 12:46:00,
2013-08-03 05:52:00,56.0,54.3,29.87,South,174,0.0,0.0,94,0.00,,-RA,0.01,VWS V14.01,2013-08-03 12:52:00,
2013-08-03 05:57:00,56.2,54.5,29.87,South,174,0.0,0.0,94,0.00,,-RA,0.01,VWS V14.01,2013-08-03 12:57:00,
2013-08-03 06:02:00,56.2,54.5,29.88,South,174,0.0,0.0,94,0.00,,-RA,0.01,VWS V14.01,2013-08-03 13:02:00,
2013-08-03 06:07:00,56.2,54.5,29.88,South,174,0.0,0.0,94,0.00,,-RA,0.01,VWS V14.01,2013-08-03 13:07:00,
2013-08-03 06:12:00,56.3,54.6,29.88,South,174,0.0,0.0,94,0.00,,-RA,0.01,VWS V14.01,2013-08-03 13:12:00,
2013-08-03 06:17:00,56.3,54.6,29.88,South,174,0.0,0.0,94,0.00,,-RA,0.01,VWS V14.01,2013-08-03 13:17:00,
2013-08-03 06:22:00,56.2,54.5,29.88,South,174,0.0,0.0,94,0.00,,-RA,0.01,VWS V14.01,2013-08-03 13:22:00,
2013-08-03 06:27:00,56.2,54.5,29.88,South,174,0.0,0.0,94,0.00,,-RA,0.01,VWS V14.01,2013-08-03 13:27:00,
2013-08-03 06:32:00,56.2,54.5,29.88,South,174,0.0,0.0,94,0.00,,-RA,0.01,VWS V14.01,2013-08-03 13:32:00,
2013-08-03 06:38:00,56.3,54.6,29.88,South,174,0.0,0.0,94,0.00,,-RA,0.01,VWS V14.01,2013-08-03 13:38:00,
2013-08-03 06:43:00,56.5,54.8,29.88,South,174,0.0,0.0,94,0.00,,-RA,0.01,VWS V14.01,2013-08-03 13:43:00,
2013-08-03 06:48:00,56.5,54.8,29.88,South,174,0.0,0.0,94,0.00,,-RA,0.01,VWS V14.01,2013-08-03 13:48:00,
2013-08-03 06:53:00,56.6,54.9,29.88,South,174,0.0,0.0,94,0.00,,-RA,0.01,VWS V14.01,2013-08-03 13:53:00,
2013-08-03 06:58:00,56.6,54.9,29.88,South,174,0.0,0.0,94,0.00,,-RA,0.01,VWS V14.01,2013-08-03 13:58:00,
2013-08-03 07:02:00,56.7,55.0,29.88,South,174,0.0,0.0,94,0.00,,-RA,0.01,VWS V14.01,2013-08-03 14:02:00,
2013-08-03 07:07:00,56.7,55.0,29.88,South,174,0.0,0.0,94,0.00,,-RA,0.01,VWS V14.01,2013-08-03 14:07:00,
2013-08-03 07:12:00,56.9,55.2,29.88,South,174,0.0,0.0,94,0.00,,-RA,0.01,VWS V14.01,2013-08-03 14:12:00,
2013-08-03 07:17:00,57.2,55.5,29.89,South,174,0.0,0.0,94,0.00,,-RA,0.01,VWS V14.01,2013-08-03 14:17:00,
2013-08-03 07:22:00,57.5,56.1,29.89,South,174,0.0,0.0,95,0.00,,-RA,0.01,VWS V14.01,2013-08-03 14:22:00,
2013-08-03 07:27:00,57.5,56.1,29.89,South,174,0.0,0.0,95,0.00,,-RA,0.01,VWS V14.01,2013-08-03 14:27:00,
2013-08-03 07:32:00,57.8,56.1,29.89,South,174,0.0,0.0,94,0.00,,-RA,0.01,VWS V14.01,2013-08-03 14:32:00,
2013-08-03 07:37:00,57.8,56.1,29.89,South,175,0.0,0.0,94,0.00,,OVC110,0.01,VWS V14.01,2013-08-03 14:37:00,
2013-08-03 07:42:00,57.8,56.1,29.89,South,174,0.0,0.0,94,0.00,,OVC110,0.01,VWS V14.01,2013-08-03 14:42:00,
2013-08-03 07:47:00,57.8,56.1,29.88,South,174,0.0,0.0,94,0.00,,OVC110,0.01,VWS V14.01,2013-08-03 14:47:00,
2013-08-03 07:53:00,57.6,55.9,29.88,South,174,0.0,0.0,94,0.00,,OVC006,0.01,VWS V14.01,2013-08-03 14:53:00,
2013-08-03 07:57:00,57.5,55.8,29.88,South,174,0.0,0.0,94,0.00,,OVC006,0.01,VWS V14.01,2013-08-03 14:57:00,
2013-08-03 08:03:00,57.2,55.5,29.88,South,174,0.0,2.0,94,0.00,,OVC006,0.01,VWS V14.01,2013-08-03 15:03:00,
2013-08-03 08:08:00,57.3,55.6,29.88,South,175,0.0,2.0,94,0.00,,OVC006,0.01,VWS V14.01,2013-08-03 15:08:00,
2013-08-03 08:13:00,57.2,55.5,29.88,South,174,0.0,2.0,94,0.00,,OVC006,0.01,VWS V14.01,2013-08-03 15:13:00,
2013-08-03 08:18:00,57.6,55.9,29.89,South,174,0.0,0.0,94,0.00,,OVC006,0.01,VWS V14.01,2013-08-03 15:18:00,
2013-08-03 08:23:00,57.6,55.9,29.89,South,174,0.0,0.0,94,0.00,,OVC006,0.01,VWS V14.01,2013-08-03 15:23:00,
2013-08-03 08:28:00,57.8,56.1,29.89,South,174,0.0,0.0,94,0.00,,OVC006,0.01,VWS V14.01,2013-08-03 15:28:00,
2013-08-03 08:33:00,58.1,56.4,29.89,South,174,0.0,0.0,94,0.00,,OVC006,0.01,VWS V14.01,2013-08-03 15:33:00,
2013-08-03 08:38:00,58.3,56.3,29.89,South,174,0.0,0.0,93,0.00,,OVC040,0.01,VWS V14.01,2013-08-03 15:38:00,
2013-08-03 08:43:00,58.3,56.0,29.89,South,174,0.0,0.0,92,0.00,,OVC040,0.01,VWS V14.01,2013-08-03 15:43:00,
2013-08-03 08:48:00,58.3,56.0,29.89,South,174,0.0,0.0,92,0.00,,OVC040,0.01,VWS V14.01,2013-08-03 15:48:00,
2013-08-03 08:53:00,58.4,56.1,29.89,South,174,0.0,0.0,92,0.00,,BKN100,0.01,VWS V14.01,2013-08-03 15:53:00,
2013-08-03 08:58:00,58.6,56.3,29.89,South,175,0.0,0.0,92,0.00,,BKN100,0.01,VWS V14.01,2013-08-03 15:58:00,
2013-08-03 09:03:00,58.6,56.3,29.89,South,174,0.0,0.0,92,0.00,,BKN100,0.01,VWS V14.01,2013-08-03 16:03:00,
2013-08-03 09:08:00,58.7,56.4,29.89,South,174,0.0,0.0,92,0.00,,BKN100,0.01,VWS V14.01,2013-08-03 16:08:00,
2013-08-03 09:14:00,58.7,56.1,29.89,South,174,0.0,0.0,91,0.00,,BKN100,0.01,VWS V14.01,2013-08-03 16:14:00,
2013-08-03 09:19:00,59.0,56.4,29.89,South,174,0.0,0.0,91,0.00,,BKN100,0.01,VWS V14.01,2013-08-03 16:19:00,
2013-08-03 09:24:00,59.2,56.3,29.89,South,174,0.0,0.0,90,0.00,,BKN100,0.01,VWS V14.01,2013-08-03 16:24:00,
2013-08-03 09:29:00,59.3,56.4,29.89,South,174,0.0,0.0,90,0.00,,BKN100,0.01,VWS V14.01,2013-08-03 16:29:00,
2013-08-03 09:34:00,59.8,56.6,29.89,South,174,0.0,0.0,89,0.00,,BKN100,0.01,VWS V14.01,2013-08-03 16:34:00,
2013-08-03 09:39:00,60.2,56.3,29.89,South,174,0.0,0.0,87,0.00,,BKN090,0.01,VWS V14.01,2013-08-03 16:39:00,
2013-08-03 09:44:00,60.9,56.7,29.88,South,174,0.0,0.0,86,0.00,,BKN090,0.01,VWS V14.01,2013-08-03 16:44:00,
2013-08-03 09:49:00,60.4,55.2,29.88,South,174,0.0,3.0,83,0.00,,BKN090,0.01,VWS V14.01,2013-08-03 16:49:00,
2013-08-03 09:54:00,60.2,55.0,29.88,South,174,0.0,3.0,83,0.00,,BKN100,0.01,VWS V14.01,2013-08-03 16:54:00,
2013-08-03 09:59:00,60.5,55.3,29.89,South,174,0.0,0.0,83,0.00,,BKN100,0.01,VWS V14.01,2013-08-03 16:59:00,
2013-08-03 10:04:00,60.9,55.4,29.89,South,174,0.0,0.0,82,0.00,,BKN100,0.01,VWS V14.01,2013-08-03 17:04:00,
2013-08-03 10:09:00,61.2,55.7,29.89,South,174,0.0,0.0,82,0.00,,BKN100,0.01,VWS V14.01,2013-08-03 17:09:00,
2013-08-03 10:14:00,62.1,55.9,29.89,South,174,0.0,0.0,80,0.00,,BKN100,0.01,VWS V14.01,2013-08-03 17:14:00,
2013-08-03 10:20:00,63.2,55.5,29.89,South,174,0.0,0.0,76,0.00,,BKN100,0.01,VWS V14.01,2013-08-03 17:20:00,
2013-08-03 10:25:00,64.0,55.9,29.89,South,174,0.0,1.0,75,0.00,,BKN100,0.01,VWS V14.01,2013-08-03 17:25:00,
2013-08-03 10:30:00,65.2,58.5,29.88,South,174,0.0,0.0,79,0.00,,BKN100,0.01,VWS V14.01,2013-08-03 17:30:00,
2013-08-03 10:35:00,66.0,57.1,29.88,South,174,0.0,0.0,73,0.00,,BKN100,0.01,VWS V14.01,2013-08-03 17:35:00,